{"data":{"norad_id":81366,"intl_designator":"","name":"UNKNOWN","alt_names":[],"object_type":"UNKNOWN","status":"UNKNOWN","operator":null,"country":null,"launch_date":null,"launch_site_code":null,"launch_vehicle":null,"mission":null,"orbit_class":"UNKNOWN","rcs_meters":null,"size_class":null,"mass_kg":null,"dimensions":null,"purposes":[],"wikipedia_slug":null,"has_3d_model":false,"image_url":null,"decayed_at":null,"tle_current":{"epoch":"2026-05-23T00:35:25.649952Z","epoch_age_seconds":235973,"freshness":"STALE","line1":"1 81366U          26143.02460243  .00001066  00000+0  39067-3 0  9991","line2":"2 81366  65.8831  50.1940 0717489   3.2863 357.2540 13.45563637 87659","mean_motion":13.45563637,"eccentricity":0.0717489,"inclination_deg":65.8831,"raan_deg":50.194,"arg_perigee_deg":3.2863,"mean_anomaly_deg":357.254,"bstar":0.00039067,"rev_number":8765,"period_min":107.01834981291,"perigee_km":552.89364660538,"apogee_km":1624.3576605133,"semimajor_km":7466.7626535593,"source":"CELESTRAK","updated_at":"2026-05-25T13:38:09.450308Z"}}}